Погода в Солёном Озере

Россия / Республика Крым     45°53′07″N   34°27′00″E
темп.,
°C
ветер,
м/с
пор.,
м/с
влажн.,
%
обл.,
%
осадки,
мм/ч
давл.,
гПа
погр.,
м
25 января, пн
пн2500:00+7ююв71079100 0.2 1011106
03:00+7ююв798588 0.2 1010104
06:00+7ю710840 0.0 1011119
09:00+7ююв79821 0.0 1010100
12:00+9ююв9117334 0.0 1011101
15:00+9юв787167 0.1 100841
18:00+9ююв81073100 0.0 100797
21:00+7ююв81082100 0.0 1005101
26 января, вт
вт2600:00+8ю101583100 0.6 1005197
03:00+7юз9167395 0.9 1007441
06:00+6юз6107733 0.0 1009213
09:00+6ю577767 0.0 1011109
12:00+7юв7972100 0.0 1011114
15:00+10ю91068100 0.1 100977
18:00+9ююв8973100 0.0 100865
21:00+9ю7879100 0.0 100863
27 января, ср
ср2700:00+8ююв7885100 0.3 100874
03:00+8юв8988100 0.8 100679
06:00+8юв81086100 0.1 100497
09:00+8юв111586100 0.1 1003153
12:00+8юв81083100 0.0 100285
15:00+10ююв7874100 0.0 99940
18:00+9юв91179100 0.0 99994
21:00+8юв8978100 0.0 99970
28 января, чт
чт2800:00+8юз4585100 0.0 99930
03:00+7юз6786100 0.0 100091
06:00+6зюз4588100 0.5 99983
09:00+5юз71081100 1.8 1000483
12:00+5юз81175100 0.0 1002996
15:00+4зюз91270100 0.0 10021258
18:00+4зюз10126899 0.0 10041374
21:00+3зюз9117675 0.1 1006962
29 января, пт
пт2900:00+3зюз8107663 0.2 10071053
03:00+3з697278 0.3 10081203
06:00+2юз557169 0.4 1008497
09:00+2ююз787647 0.4 1008405
12:00+1ююз7997100 1.8 1007414
15:00+4зюз686896 2.6 10051218
18:00+4з697067 0.2 10051157
21:00+4юз486568 0.2 1005650